FW1654 Weather Reports


Display with metric or nautical units.
time (UTC)temp
F
wind
direction
speed
MPH
gust
MPH
rain 1hr
in
rain 24hr
in
rain mn
in
humidity
%
barometer
mb
20260509204447 74 253 4.0 7.0 0.00 0.00 0.00 53 1013.1
20260509204215 74 225 4.0 7.0 0.00 0.00 0.00 54 1013.2
20260509203447 73 170 4.0 9.0 0.00 0.00 0.00 55 1013.2
20260509202947 72 271 4.0 9.0 0.00 0.00 0.00 54 1013.2
20260509202446 73 204 4.0 9.0 0.00 0.00 0.00 54 1013.2
20260509201947 73 191 4.0 9.0 0.00 0.00 0.00 52 1013.2
20260509201447 73 230 4.0 9.0 0.00 0.00 0.00 55 1013.2
20260509200946 73 250 4.0 9.0 0.00 0.00 0.00 55 1013.2
20260509200446 73 199 5.0 11.0 0.00 0.00 0.00 53 1013.2
20260509195947 73 195 5.0 11.0 0.00 0.00 0.00 52 1013.2
20260509195447 73 204 5.0 11.0 0.00 0.00 0.00 56 1013.5
20260509194946 72 217 5.0 13.0 0.00 0.00 0.00 56 1013.5
20260509194446 72 197 4.0 13.0 0.00 0.00 0.00 53 1013.5
20260509193950 73 192 4.0 10.0 0.00 0.00 0.00 55 1013.2
20260509193450 72 276 3.0 9.0 0.00 0.00 0.00 57 1013.2
20260509192949 71 216 3.0 9.0 0.00 0.00 0.00 58 1013.2
20260509192450 71 266 4.0 5.0 0.00 0.00 0.00 57 1013.2
20260509191947 70 275 4.0 9.0 0.00 0.00 0.00 58 1013.2
20260509191447 71 189 4.0 11.0 0.00 0.00 0.00 56 1013.2
20260509191203 71 210 4.0 11.0 0.00 0.00 0.00 57 1013.1
20260509190447 71 228 4.0 9.0 0.00 0.00 0.00 57 1013.1
20260509190212 71 269 4.0 9.0 0.00 0.00 0.00 59 1013.1
20260509185447 70 298 3.0 9.0 0.00 0.00 0.00 58 1013.2
20260509185426 70 188 3.0 9.0 0.00 0.00 0.00 57 1013.2
20260509184447 70 270 4.0 10.0 0.00 0.00 0.00 60 1013.2
20260509183947 70 189 4.0 10.0 0.00 0.00 0.00 56 1013.3
20260509183448 70 193 4.0 10.0 0.00 0.00 0.00 58 1013.3
20260509182948 70 254 4.0 9.0 0.00 0.00 0.00 59 1013.3
20260509182448 70 229 5.0 13.0 0.00 0.00 0.00 56 1013.5
20260509181948 70 156 5.0 13.0 0.00 0.00 0.00 59 1013.5
20260509181716 69 278 4.0 13.0 0.00 0.00 0.00 59 1013.5
20260509180948 69 330 4.0 12.0 0.00 0.00 0.00 61 1013.8
20260509180448 69 168 4.0 10.0 0.00 0.00 0.00 60 1013.8
20260509175948 69 250 4.0 10.0 0.00 0.00 0.00 62 1013.8
20260509175448 68 264 5.0 11.0 0.00 0.00 0.00 63 1014.0
20260509174948 68 208 5.0 11.0 0.00 0.00 0.00 66 1014.0
20260509174446 68 255 5.0 12.0 0.00 0.00 0.00 62 1014.0
20260509174431 68 198 5.0 16.0 0.00 0.00 0.00 63 1013.9
20260509173448 68 276 5.0 16.0 0.00 0.00 0.00 60 1013.9
20260509172948 68 207 5.0 12.0 0.00 0.00 0.00 65 1013.9
20260509172447 67 206 5.0 13.0 0.00 0.00 0.00 64 1014.0
20260509172208 68 271 5.0 13.0 0.00 0.00 0.00 68 1014.0
20260509171447 67 179 4.0 11.0 0.00 0.00 0.00 63 1014.0
20260509170947 67 203 4.0 9.0 0.00 0.00 0.00 67 1014.1
20260509170447 66 196 6.0 15.0 0.00 0.00 0.00 69 1014.1
20260509165946 66 232 6.0 15.0 0.00 0.00 0.00 68 1014.1
20260509165446 66 220 6.0 15.0 0.00 0.00 0.00 66 1014.3
20260509164947 66 187 6.0 15.0 0.00 0.00 0.00 66 1014.3
20260509164718 66 288 4.0 19.0 0.00 0.00 0.00 68 1014.3
20260509163947 66 80 4.0 19.0 0.00 0.00 0.00 71 1014.5
20260509163926 65 274 6.0 13.0 0.00 0.00 0.00 73 1014.5
20260509163207 65 294 6.0 14.0 0.00 0.00 0.00 71 1014.5
20260509162713 64 195 4.0 14.0 0.00 0.00 0.00 73 1014.5
20260509161947 64 242 4.0 13.0 0.00 0.00 0.00 75 1014.5
20260509161709 64 270 4.0 7.0 0.00 0.00 0.00 77 1014.5
20260509160947 63 194 4.0 9.0 0.00 0.00 0.00 77 1014.7
20260509160446 63 208 3.0 9.0 0.00 0.00 0.00 76 1014.7
20260509155946 63 189 3.0 7.0 0.00 0.00 0.00 78 1014.7
20260509155446 62 292 5.0 10.0 0.00 0.00 0.00 80 1014.7
20260509154947 62 242 5.0 10.0 0.00 0.00 0.00 77 1014.7
20260509154709 62 183 4.0 9.0 0.00 0.00 0.00 78 1014.7
20260509153946 61 200 4.0 10.0 0.00 0.00 0.00 79 1014.7
20260509153444 61 262 4.0 10.0 0.00 0.00 0.00 78 1014.7
20260509152944 61 359 4.0 9.0 0.00 0.00 0.00 78 1014.7
20260509152702 61 211 3.0 9.0 0.00 0.00 0.00 78 1014.5
20260509151944 60 192 3.0 9.0 0.00 0.00 0.00 78 1014.5
20260509151444 60 249 2.0 6.0 0.00 0.00 0.00 81 1014.5
20260509151207 60 204 2.0 5.0 0.00 0.00 0.00 80 1014.2
20260509150444 60 214 2.0 5.0 0.00 0.00 0.00 80 1014.2
20260509145943 59 205 2.0 5.0 0.00 0.00 0.00 82 1014.2
20260509145428 59 219 1.0 5.0 0.00 0.00 0.00 82 1014.4
20260509144929 58 18 1.0 3.0 0.00 0.00 0.00 85 1014.4
20260509144429 58 13 0.0 3.0 0.00 0.00 0.00 83 1014.4
20260509143929 58 13 0.0 2.0 0.00 0.00 0.00 83 1014.4
20260509143649 57 13 1.0 3.0 0.00 0.00 0.00 85 1014.4
20260509142853 57 13 0.0 3.0 0.00 0.00 0.00 85 1014.4
20260509142353 56 13 0.0 3.0 0.00 0.00 0.00 85 1014.4
20260509141846 56 13 2.0 3.0 0.00 0.00 0.00 85 1014.4
20260509141346 56 13 2.0 2.0 0.00 0.00 0.00 86 1014.4
20260509140830 55 13 1.0 4.0 0.00 0.00 0.00 87 1014.3
20260509140305 55 13 1.0 4.0 0.00 0.00 0.00 87 1014.3
20260509140021 55 13 2.0 3.0 0.00 0.00 0.00 87 1014.3
20260509135258 54 13 2.0 4.0 0.00 0.00 0.00 88 1014.3
20260509134746 54 13 0.0 4.0 0.00 0.00 0.00 88 1014.3
20260509134511 54 13 0.0 2.0 0.00 0.00 0.00 89 1014.3
20260509133955 53 13 0.0 2.0 0.00 0.00 0.00 89 1014.4
20260509133221 53 13 0.0 2.0 0.00 0.00 0.00 89 1014.4
20260509132724 53 13 1.0 2.0 0.00 0.00 0.00 90 1014.4
20260509132204 53 13 1.0 2.0 0.00 0.00 0.00 90 1014.5
20260509131651 53 13 2.0 4.0 0.00 0.00 0.00 90 1014.5
20260509131141 52 13 2.0 4.0 0.00 0.00 0.00 90 1014.5
20260509130637 52 13 2.0 4.0 0.00 0.00 0.00 90 1014.5
20260509130136 52 13 2.0 5.0 0.00 0.00 0.00 90 1014.5
20260509125854 52 13 1.0 5.0 0.00 0.00 0.00 91 1014.3
20260509125128 51 10 1.0 3.0 0.00 0.00 0.00 91 1014.3
20260509124629 51 10 2.0 4.0 0.00 0.00 0.00 92 1014.3
20260509124349 51 10 2.0 5.0 0.00 0.00 0.00 91 1014.1
20260509123839 50 11 1.0 3.0 0.00 0.00 0.00 92 1014.1
20260509123722 51 10 1.0 5.0 0.00 0.00 0.00 91 1014.1
20260509122853 50 11 2.0 2.0 0.00 0.00 0.00 93 1014.4
20260509122123 49 11 2.0 3.0 0.00 0.00 0.00 93 1014.4
20260509121841 49 11 2.0 5.0 0.00 0.00 0.00 92 1014.4
20260509121117 49 11 2.0 5.0 0.00 0.00 0.00 92 1014.3
20260509120611 48 11 2.0 5.0 0.00 0.00 0.00 93 1014.3
20260509120335 48 11 2.0 5.0 0.00 0.00 0.00 92 1014.3
20260509115603 48 12 0.0 3.0 0.00 0.00 0.00 93 1014.6
20260509115107 48 12 0.0 2.0 0.00 0.00 0.00 93 1014.6
20260509114556 47 12 0.0 2.0 0.00 0.00 0.00 93 1014.6
20260509114051 47 12 0.0 2.0 0.00 0.00 0.00 93 1015.0
20260509113552 47 12 0.0 3.0 0.00 0.00 0.00 92 1015.0
20260509113051 47 12 0.0 3.0 0.00 0.00 0.00 92 1015.0
20260509112546 47 12 0.0 0.0 0.00 0.00 0.00 92 1015.1
20260509112021 47 12 0.0 1.0 0.00 0.00 0.00 91 1015.1
20260509111434 47 12 0.0 2.0 0.00 0.00 0.00 91 1015.1
20260509110857 48 12 2.0 3.0 0.00 0.00 0.00 91 1014.8
20260509110356 47 12 2.0 3.0 0.00 0.00 0.00 91 1014.8
20260509105856 47 12 1.0 4.0 0.00 0.00 0.00 91 1014.8
20260509105356 47 12 1.0 4.0 0.00 0.00 0.00 91 1014.6
20260509104851 47 12 1.0 4.0 0.00 0.00 0.00 91 1014.6
20260509104350 47 12 1.0 3.0 0.00 0.00 0.00 91 1014.6
20260509103826 47 12 0.0 2.0 0.00 0.00 0.00 91 1014.3
20260509103330 48 12 0.0 2.0 0.00 0.00 0.00 90 1014.3
20260509103037 48 12 1.0 1.0 0.00 0.00 0.00 90 1014.3
20260509102316 48 12 1.0 2.0 0.00 0.00 0.00 90 1014.2
20260509101734 48 12 4.0 4.0 0.00 0.00 0.00 90 1014.2
20260509101232 48 12 4.0 6.0 0.00 0.00 0.00 89 1014.2
20260509100948 48 12 3.0 6.0 0.00 0.00 0.00 89 1014.0
20260509100440 48 4 3.0 5.0 0.00 0.00 0.00 89 1014.0
20260509095721 48 8 2.0 5.0 0.00 0.00 0.00 89 1014.0
20260509095220 48 2 2.0 5.0 0.00 0.00 0.00 89 1014.0
20260509094720 48 7 2.0 4.0 0.00 0.00 0.00 90 1014.0
20260509094218 48 7 2.0 5.0 0.00 0.00 0.00 89 1014.0
20260509093718 48 10 2.0 5.0 0.00 0.00 0.00 90 1014.0
20260509093218 48 10 2.0 4.0 0.00 0.00 0.00 90 1014.0
20260509092719 47 10 1.0 4.0 0.00 0.00 0.00 90 1014.0
20260509092216 47 10 1.0 4.0 0.00 0.00 0.00 90 1013.9
20260509091713 47 10 2.0 1.0 0.00 0.00 0.00 90 1013.9
20260509091414 47 9 0.0 0.0 0.00 0.00 0.00 89 1013.9
20260509090649 47 9 0.0 0.0 0.00 0.00 0.00 89 1014.0
20260509090145 47 9 0.0 0.0 0.00 0.00 0.00 89 1014.0
20260509085633 47 9 0.0 0.0 0.00 0.00 0.00 89 1014.1
20260509085120 48 9 0.0 1.0 0.00 0.00 0.00 88 1014.1
20260509084616 48 9 3.0 5.0 0.00 0.00 0.00 88 1014.1
20260509084305 48 9 3.0 5.0 0.00 0.00 0.00 89 1014.0
20260509083543 48 8 0.0 5.0 0.00 0.00 0.00 89 1014.0
20260509083043 47 10 0.0 5.0 0.00 0.00 0.00 90 1014.0
20260509082547 47 8 0.0 0.0 0.00 0.00 0.00 90 1014.1
20260509082300 47 7 0.0 0.0 0.00 0.00 0.00 90 1014.1
20260509081536 47 7 0.0 0.0 0.00 0.00 0.00 89 1014.1
20260509081011 47 7 0.0 0.0 0.00 0.00 0.00 88 1014.1
20260509080506 48 7 0.0 0.0 0.00 0.00 0.00 87 1014.1
20260509075936 48 7 0.0 0.0 0.00 0.00 0.00 87 1014.1
20260509075643 48 8 0.0 0.0 0.00 0.00 0.00 86 1014.1
20260509074908 49 7 0.0 0.0 0.00 0.00 0.00 86 1014.1
20260509074359 49 7 0.0 0.0 0.00 0.00 0.00 86 1014.1
20260509073855 49 7 0.0 0.0 0.00 0.00 0.00 85 1014.1
20260509073355 49 7 0.0 0.0 0.00 0.00 0.00 85 1014.1
20260509072824 49 7 0.0 0.0 0.00 0.00 0.00 84 1014.1
20260509072246 49 14 0.0 0.0 0.00 0.00 0.00 83 1014.1
20260509071719 49 15 0.0 0.0 0.00 0.00 0.00 83 1014.1
20260509071654 49 15 0.0 0.0 0.00 0.00 0.00 83 1014.1
20260509071148 49 3 0.0 0.0 0.00 0.00 0.00 82 1014.2
20260509070138 49 11 0.0 0.0 0.00 0.00 0.00 82 1014.2
20260509065638 49 20 0.0 0.0 0.00 0.00 0.00 81 1014.3
20260509065131 50 20 0.0 0.0 0.00 0.00 0.00 80 1014.3
20260509064618 50 20 0.0 0.0 0.00 0.00 0.00 80 1014.3
20260509064110 50 20 0.0 0.0 0.00 0.00 0.00 79 1014.6
20260509063601 50 20 0.0 0.0 0.00 0.00 0.00 79 1014.6
20260509063304 50 20 0.0 0.0 0.00 0.00 0.00 79 1014.6
20260509062538 50 20 0.0 0.0 0.00 0.00 0.00 78 1014.7
20260509062251 50 20 0.0 0.0 0.00 0.00 0.00 77 1014.7
20260509061526 50 20 0.0 0.0 0.00 0.00 0.00 78 1014.7
20260509061018 50 20 0.0 0.0 0.00 0.00 0.00 77 1014.9
20260509060458 51 20 0.0 0.0 0.00 0.00 0.00 77 1014.9
20260509055938 51 20 0.0 0.0 0.00 0.00 0.00 77 1014.9
20260509055437 50 20 0.0 0.0 0.00 0.00 0.00 77 1015.0
20260509054927 50 20 0.0 0.0 0.00 0.00 0.00 77 1015.0
20260509054635 50 252 0.0 0.0 0.00 0.00 0.00 78 1015.0
20260509053910 51 252 0.0 0.0 0.00 0.00 0.00 77 1015.3
20260509053358 51 252 0.0 0.0 0.00 0.00 0.00 76 1015.3
20260509053111 51 252 0.0 0.0 0.00 0.00 0.00 76 1015.3
20260509052604 52 252 0.0 0.0 0.00 0.00 0.00 74 1015.5
20260509051826 52 252 0.0 0.0 0.00 0.00 0.00 74 1015.5
20260509051316 52 252 0.0 0.0 0.00 0.00 0.00 75 1015.5
20260509050807 52 252 0.0 0.0 0.00 0.00 0.00 74 1015.4
20260509050253 52 252 0.0 0.0 0.00 0.00 0.00 73 1015.4
20260509050012 52 252 0.0 0.0 0.00 0.00 0.00 73 1015.4
20260509045233 53 252 0.0 0.0 0.00 0.00 0.00 73 1015.6
20260509044717 53 252 0.0 0.0 0.00 0.00 0.00 71 1015.6
20260509044433 53 252 0.0 0.0 0.00 0.00 0.00 70 1015.6
20260509043928 53 252 0.0 0.0 0.00 0.00 0.00 70 1015.6
20260509043144 54 252 0.0 0.0 0.00 0.00 0.00 70 1015.6
20260509042639 54 252 0.0 0.0 0.00 0.00 0.00 69 1015.4
20260509042128 54 252 0.0 0.0 0.00 0.00 0.00 69 1015.4
20260509041625 54 252 0.0 0.0 0.00 0.00 0.00 68 1015.4
20260509041335 54 252 0.0 0.0 0.00 0.00 0.00 68 1015.3
20260509040605 54 252 0.0 0.0 0.00 0.00 0.00 68 1015.3
20260509040108 54 252 0.0 0.0 0.00 0.00 0.00 67 1015.3
20260509035833 55 252 0.0 0.0 0.00 0.00 0.00 68 1015.4
20260509035030 55 252 0.0 0.0 0.00 0.00 0.00 67 1015.4
20260509034525 55 252 0.0 0.0 0.00 0.00 0.00 67 1015.4
20260509034247 55 252 0.0 0.0 0.00 0.00 0.00 67 1015.4
20260509033524 56 252 0.0 0.0 0.00 0.00 0.00 67 1015.4
20260509033015 56 252 0.0 0.0 0.00 0.00 0.00 66 1015.4
20260509032454 56 252 0.0 0.0 0.00 0.00 0.00 66 1015.6
20260509031951 57 252 0.0 0.0 0.00 0.00 0.00 63 1015.6
20260509031924 57 252 0.0 0.0 0.00 0.00 0.00 59 1015.6
20260509031417 57 252 0.0 0.0 0.00 0.00 0.00 58 1015.7
20260509030647 58 252 0.0 0.0 0.00 0.00 0.00 57 1015.7
20260509025921 58 252 0.0 0.0 0.00 0.00 0.00 57 1015.7
20260509025405 58 252 0.0 0.0 0.00 0.00 0.00 58 1015.6
20260509024907 58 252 0.0 0.0 0.00 0.00 0.00 57 1015.6
20260509024337 58 252 0.0 0.0 0.00 0.00 0.00 55 1015.6
20260509023812 59 252 0.0 0.0 0.00 0.00 0.00 56 1015.6
20260509023242 59 252 0.0 0.0 0.00 0.00 0.00 55 1015.6
20260509022742 59 252 0.0 0.0 0.00 0.00 0.00 55 1015.6
20260509022215 59 252 0.0 0.0 0.00 0.00 0.00 54 1015.5
20260509021713 59 252 0.0 0.0 0.00 0.00 0.00 54 1015.5
20260509021202 59 252 0.0 0.0 0.00 0.00 0.00 54 1015.5
20260509020653 59 252 0.0 0.0 0.00 0.00 0.00 54 1015.5
20260509020139 59 252 0.0 0.0 0.00 0.00 0.00 54 1015.5
20260509015621 60 252 0.0 0.0 0.00 0.00 0.00 55 1015.4
20260509015350 60 252 0.0 0.0 0.00 0.00 0.00 54 1015.4
20260509014555 60 252 0.0 0.0 0.00 0.00 0.00 53 1015.4
20260509014314 60 252 0.0 0.0 0.00 0.00 0.00 53 1015.4
20260509013530 60 252 0.0 0.0 0.00 0.00 0.00 52 1015.4
20260509013015 60 252 0.0 0.0 0.00 0.00 0.00 52 1015.4
20260509012745 61 252 0.0 0.0 0.00 0.00 0.00 51 1015.3
20260509011942 61 252 0.0 0.0 0.00 0.00 0.00 50 1015.3
20260509011442 61 252 0.0 0.0 0.00 0.00 0.00 49 1015.3
20260509010926 61 252 0.0 0.0 0.00 0.00 0.00 49 1015.3
20260509005905 62 252 0.0 0.0 0.00 0.00 0.00 48 1015.3
20260509005345 62 252 0.0 0.0 0.00 0.00 0.00 47 1015.3
20260509005112 62 252 0.0 0.0 0.00 0.00 0.00 46 1015.3
20260509004319 63 252 0.0 0.0 0.00 0.00 0.00 46 1015.3
20260509003817 63 252 0.0 2.0 0.00 0.00 0.00 44 1015.1
20260509003523 63 252 0.0 2.0 0.00 0.00 0.00 44 1015.1
20260509002755 63 252 0.0 0.0 0.00 0.00 0.00 43 1015.1
20260509002732 64 252 0.0 3.0 0.00 0.00 0.00 43 1015.1
20260509001756 64 252 0.0 3.0 0.00 0.00 0.00 42 1015.1
20260509001517 65 252 0.0 4.0 0.00 0.00 0.00 41 1015.1
20260509000751 66 252 1.0 4.0 0.00 0.00 0.00 41 1015.0
20260509000234 66 252 1.0 4.0 0.00 0.00 0.00 39 1015.0
20260508235725 67 246 2.0 4.0 0.00 0.00 0.00 40 1015.0
20260508235704 68 279 2.0 5.0 0.00 0.00 0.00 39 1015.1
20260508234717 69 279 2.0 5.0 0.00 0.00 0.00 37 1015.1
20260508234218 69 203 2.0 5.0 0.00 0.00 0.00 39 1015.1
20260508233718 69 275 3.0 6.0 0.00 0.00 0.00 36 1015.1
20260508233217 70 249 3.0 6.0 0.00 0.00 0.00 35 1015.1
20260508232718 70 268 3.0 6.0 0.00 0.00 0.00 34 1015.1
20260508232218 70 203 3.0 6.0 0.00 0.00 0.00 35 1015.2
20260508231938 71 273 2.0 6.0 0.00 0.00 0.00 35 1015.2
20260508231217 71 283 2.0 5.0 0.00 0.00 0.00 34 1015.2
20260508230721 71 253 3.0 6.0 0.00 0.00 0.00 38 1015.3
20260508230216 71 274 3.0 6.0 0.00 0.00 0.00 35 1015.3
20260508225934 71 172 3.0 9.0 0.00 0.00 0.00 35 1015.3
20260508225651 71 226 3.0 9.0 0.00 0.00 0.00 36 1015.3
20260508224933 71 272 4.0 7.0 0.00 0.00 0.00 36 1015.3
20260508224215 71 243 4.0 7.0 0.00 0.00 0.00 36 1015.3
20260508223715 71 222 4.0 8.0 0.00 0.00 0.00 35 1015.3
20260508223216 71 202 4.0 8.0 0.00 0.00 0.00 33 1015.3
20260508222715 71 210 3.0 9.0 0.00 0.00 0.00 36 1015.3
20260508222215 71 256 3.0 9.0 0.00 0.00 0.00 35 1015.2
20260508221715 71 195 4.0 9.0 0.00 0.00 0.00 35 1015.2
20260508221216 71 286 4.0 11.0 0.00 0.00 0.00 35 1015.2
20260508221150 71 257 3.0 11.0 0.00 0.00 0.00 34 1015.1
20260508220445 71 302 3.0 11.0 0.00 0.00 0.00 35 1015.1
20260508215715 71 264 4.0 8.0 0.00 0.00 0.00 37 1015.1
20260508215215 71 204 4.0 9.0 0.00 0.00 0.00 37 1015.0
20260508214715 71 275 3.0 9.0 0.00 0.00 0.00 36 1015.0
20260508214215 72 248 3.0 7.0 0.00 0.00 0.00 37 1015.0
20260508213715 71 271 3.0 6.0 0.00 0.00 0.00 39 1015.0
20260508213215 71 188 3.0 9.0 0.00 0.00 0.00 36 1015.0
20260508212941 71 209 3.0 9.0 0.00 0.00 0.00 40 1015.0
20260508212438 71 267 3.0 9.0 0.00 0.00 0.00 37 1015.0
20260508211718 71 195 3.0 7.0 0.00 0.00 0.00 36 1015.0
20260508211210 72 291 3.0 7.0 0.00 0.00 0.00 36 1015.0
20260508210707 72 211 2.0 7.0 0.00 0.00 0.00 36 1015.2
20260508210210 72 243 2.0 4.0 0.00 0.00 0.00 35 1015.2
20260508205707 72 173 2.0 4.0 0.00 0.00 0.00 36 1015.2